sat.trackr.live / text

‹ back to catalog

STARLINK-5034

NORAD 53888 · 2022-119C

PAYLOAD ACTIVE UNKNOWN

§ Identity

Operator
Country
US
Launch date
2022-09-24
Launch site
AFETR
Launch vehicle
Mass (kg)
RCS (m²)

Purposes: comms

External: N2YO · Heavens-Above · Gunter

§ Orbital elements

Epoch: 2026-05-25T04:00:03.998880Z

Period
91.00 min
Inclination
53.2156°
Eccentricity
0.0000826
Mean motion
15.82493144 rev/d
Perigee alt
322.8 km
Apogee alt
323.9 km
Semi-major
6,701.5 km
B*
1.9749e-3
RAAN
318.7177°
Arg perigee
38.9781°
Mean anomaly
245.9162°
Rev number
588

§ Raw data

STARLINK-50341 53888U 22119C   26145.16671295  .00441636  00000+0  19749-2 0  99972 53888  53.2156 318.7177 0000826  38.9781 245.9162 15.82493144  5883

JSON: /api/v1/satellites/53888 · /tle

For live sub-satellite position, see the globe view (requires WebGL).

§ Visibility from observer

Set your observer location to see the next 7 days of passes ≥ 10°. The values pass through the URL so the page stays shareable.

No JS? Fill the form by hand. The geolocation button needs JavaScript.